Regional Weather Roundup
Issued by NWS Boston, MA

Home | Current Version | Previous Version | Text Only | Print | Product List | Glossary On
Versions: 1 2 3 4 5 6 7 8 9 10 11 12 13 14 15 16 17 18 19 20 21 22 23 24 25 26 27 28 29 30 31 32 33 34 35 36 37 38 39 40 41 42 43 44 45 46 47 48 49
000
ASUS41 KBOX 061410
RWRBOX

REGIONAL WEATHER ROUNDUP
NATIONAL WEATHER SERVICE TAUNTON MA
900 AM EST FRI MAR 06 2015

NOTE:  "FAIR" INDICATES FEW OR NO CLOUDS BELOW 12,000 FEET WITH NO
SIGNIFICANT WEATHER AND/OR OBSTRUCTIONS TO VISIBILITY.  THE FOLLOWING
OBSERVATION LOCATIONS DO NOT REPORT PRESENT WEATHER...PROVINCETOWN...
SMITHFIELD...BLOCK ISLAND...KEENE...AND OXFORD.

MAZALL-061500-
EASTERN MASSACHUSETTS

CITY           SKY/WX    TMP DP  RH WIND       PRES   REMARKS
BOSTON         MOSUNNY   15  -6  39 NW8       30.51S WCI   4
BEVERLY        SUNNY     14  -9  35 NW7       30.50S WCI   4
LAWRENCE       SUNNY     12  -7  42 VRB3      30.52R
BEDFORD        MIX PCPN  12 -10  36 NW6       30.50S WCI   3
BLUE HILL        N/A     12  -8  40 N9        30.43S WCI   0
NORWOOD        SUNNY     14  -9  35 NW10      30.51S WCI   1
MARSHFIELD     SUNNY     19   3  49 NW7       30.51S WCI  10
PLYMOUTH       SUNNY     14   2  58 NW7       30.48R WCI   4
TAUNTON        SUNNY     15  -3  44 NW7       30.49S WCI   5
NEW BEDFORD    SUNNY     14   4  64 NW7       30.49R WCI   4
$$

MAZALL-061500-
CAPE COD AND THE ISLANDS

CITY           SKY/WX    TMP DP  RH WIND       PRES   REMARKS
FALMOUTH       PTSUNNY   16   7  67 N8        30.47R WCI   5
HYANNIS        PTSUNNY   21   9  59 N13       30.44R WCI   9
CHATHAM        CLOUDY    21  12  68 VRB6      30.46R WCI  13
PROVINCETOWN   MOSUNNY   21   7  53 N9G16     30.47S WCI  11
NANTUCKET      CLOUDY    23  11  60 N16       30.44R WCI  10
MARTHAS VNYRD  SUNNY     15   2  56 NW15      30.47R WCI   0
$$

MAZALL-061500-
CENTRAL AND WESTERN MASSACHUSETTS

CITY           SKY/WX    TMP DP  RH WIND       PRES   REMARKS
WORCESTER      SUNNY     12 -10  36 N7        30.41F WCI   1
FITCHBURG      SUNNY     12  -9  38 S3        30.49S
ORANGE         SUNNY     10  -8  44 CALM      30.48R
SPRINGFIELD    SUNNY     10  -7  45 NW2       30.50S
WESTFIELD      SUNNY     15  -5  40 N3        30.51R
NORTH ADAMS    SUNNY      6  -5  60 CALM      30.49R
PITTSFIELD     SUNNY      8  -2  63 VRB5      30.41R WCI   0
$$

RIZALL-061500-
RHODE ISLAND

CITY           SKY/WX    TMP DP  RH WIND       PRES   REMARKS
PROVIDENCE     SUNNY     14  -6  40 N13       30.52R WCI   0
NEWPORT        SUNNY     13  -2  51 N12       30.49R WCI  -1
BLOCK ISLAND   SUNNY     16   0  48 N10G18    30.47F WCI   3
SMITHFIELD     SUNNY     12  -8  40 N8        30.46R WCI   1
WESTERLY       SUNNY     15  -1  49 N10       30.52R WCI   2
$$

CTZALL-061500-
CONNECTICUT

CITY           SKY/WX    TMP DP  RH WIND       PRES   REMARKS
BRADLEY INTL   SUNNY     15  -5  40 VRB5      30.52R WCI   8
HARTFORD       SUNNY     15  -3  44 VRB6      30.54S WCI   6
BRIDGEPORT     SUNNY     17   3  54 N8        30.54R WCI   7
DANBURY        SUNNY     14  -2  49 N8        30.51S WCI   3
GROTON         SUNNY     14  -4  44 NE15G22   30.52R WCI  -1
NEW HAVEN      SUNNY     15   1  53 N12       30.52S WCI   2
CHESTER        FAIR      16   0  48 N10       30.49S WCI   3
MERIDEN        SUNNY     16  -1  47 N10       30.53S WCI   4
WILLIMANTIC    SUNNY     14  -6  40 CALM      30.51S
OXFORD         SUNNY     10  -6  48 N10       30.48R WCI  -3
$$

MEZ002-015-021-024-NHZ003-005-008-011-012-014-VTZ005-008-061500-
NORTHERN NEW ENGLAND

CITY           SKY/WX    TMP DP  RH WIND       PRES   REMARKS
PORTLAND ME    SUNNY     13  -7  40 NW7       30.49R WCI   3
BANGOR ME      SUNNY      8 -10  43 VRB6      30.44R WCI  -2
CONCORD NH     SUNNY     11 -10  38 NW5       30.48S WCI   3
MANCHESTER NH  SUNNY     12  -7  42 N3        30.49R
NASHUA NH      SUNNY     12 -11  35 CALM      30.51S
PORTSMOUTH NH  MOSUNNY   10  -7  45 SW3       30.49R
JAFFREY NH     SUNNY     11 -10  38 VRB3      30.41S
KEENE NH       SUNNY      3  -6  66 CALM      30.48S
BURLINGTON VT  SUNNY      5  -7  57 CALM      30.49R
MT. WASHINGTON SUNNY     -8 -27  37 NW30        N/A  WCI -36
$$

NYZ052-076-061500-
EASTERN NEW YORK

CITY           SKY/WX    TMP DP  RH WIND       PRES   REMARKS
ALBANY         SUNNY     13  -2  51 NW8       30.54R WCI   2
NEW YORK CITY  SUNNY     17   4  56 NE3       30.55R
$$

ANZALL-061500-
MARINE OBSERVATIONS

STATION/POSITION TIME  TEMP    WIND        PRES    VSBY  WAVE
                       AIR SEA DIR/SP/G                  HT/PER
                 (UTC) (F)     (DEG/KT/KT) (MB)    (MI)  (FT/S)
BOSTON BUOY      1350   16 36  340/ 12/ 16 1032.8R         3/ 6
BUZZARDS BAY     1400          350/ 17/ 18 1032.8R
NANTUCKET SOUND  1350   23 31  360/ 14/ 17 1031.4R         2/ 3
MASS BAY-STELLWA 1304   15 35  310/ 16/ 17   N/A    1 3/4  4/ 5
ISLE OF SHOALS   1400   13     320/  7/  9 1032.2R
S OF BLOCK IS    NOT AVBL
$$

......................KEY.........................
  SKY/WX - SKY CONDITION/PRESENT WEATHER
  TMP    - TEMPERATURE IN FAHRENHEIT
  DWPT   - DEWPOINT IN FAHRENHEIT
  RH     - RELATIVE HUMIDITY IN PERCENT
  WIND   - DIRECTION AND SPEED IN MPH
  PRES   - MEAN SEA LEVEL PRESSURE IN INCHES OF HG
  WCI    - WIND CHILL INDEX
  VSB    - VISIBILITY IN MILES
  HX     - HEAT INDEX
  TC     - TEMPERATURE IN CELSIUS
  VRB    - VARIABLE WIND DIRECTION
  N/A    - NOT AVAILABLE


USA.gov is the U.S. government's official web portal to all federal, state and local government web resources and services.